Location: Chimay
(50.0486°N, 4.3171°E)
Time: 10:34:12
(UTC+00:00)

Landsat 7 - Pass Details

Date: 08 August 2020
Orbit: 701 x 703 km, 98.1° (Epoch: 21 September)

Event Time Altitude Azimuth Distance (km) Brightness Sun altitude
Exits shadow 21:08:58 14° 186° (S) 1,914 5.7 -15.4°
Maximum altitude 21:12:56 51° 260° (W) 884 4.5 -15.8°
Drops below altitude 10° 21:17:36 10° 337° (NNW) 2,183 7.6 -16.3°
Sets 21:19:56 0° 343° (NNW) 3,106 8.5 -16.5°
